Satellite-Ground Cal/Val Region Overpasses Predictions

Prediction of Satellite NPP Overpassing Cal/Val Region: PacNW

Region Location: (Latitude: 10.00, Longitude: 139.50) to (Latitude: 22.70, Longitude: 165.60).

Table of predicted overpasses for the next 14.0 days since TLE Epoch: 4/17/2013
Interval Starting Time Starting Location Ending Time Ending Location
1 04/17/2013 14:57:58 ( 22.65, 160.13) 04/17/2013 15:01:33 ( 10.02, 157.12)
2 04/18/2013 02:09:32 ( 18.78, 165.59) 04/18/2013 02:10:38 ( 22.65, 164.64)
3 04/18/2013 03:48:33 ( 10.03, 142.27) 04/18/2013 03:51:51 ( 21.66, 139.51)
4 04/18/2013 14:38:56 ( 22.66, 164.89) 04/18/2013 14:42:31 ( 10.04, 161.88)
5 04/18/2013 16:20:26 ( 22.66, 139.51) 04/18/2013 16:20:26 ( 22.66, 139.51)
6 04/19/2013 03:29:31 ( 10.02, 147.03) 04/19/2013 03:33:07 ( 22.70, 144.01)
7 04/19/2013 16:01:25 ( 22.67, 144.27) 04/19/2013 16:05:00 ( 10.05, 141.27)
8 04/20/2013 03:10:30 ( 10.01, 151.79) 04/20/2013 03:14:06 ( 22.68, 148.77)
9 04/20/2013 15:42:23 ( 22.68, 149.04) 04/20/2013 15:45:59 ( 10.00, 146.01)
10 04/21/2013 02:51:29 ( 10.05, 156.54) 04/21/2013 02:55:04 ( 22.67, 153.53)
11 04/21/2013 15:23:22 ( 22.69, 153.80) 04/21/2013 15:26:58 ( 10.01, 150.77)
12 04/22/2013 02:32:28 ( 10.04, 161.30) 04/22/2013 02:36:03 ( 22.66, 158.29)
13 04/22/2013 15:04:22 ( 22.65, 158.54) 04/22/2013 15:07:57 ( 10.02, 155.53)
14 04/23/2013 02:14:00 ( 12.03, 165.60) 04/23/2013 02:17:01 ( 22.65, 163.05)
15 04/23/2013 03:54:56 ( 10.03, 140.68) 04/23/2013 03:56:22 ( 15.08, 139.51)
16 04/23/2013 14:45:20 ( 22.66, 163.30) 04/23/2013 14:48:55 ( 10.04, 160.29)
17 04/24/2013 03:35:55 ( 10.02, 145.44) 04/24/2013 03:39:31 ( 22.70, 142.42)
18 04/24/2013 14:29:14 ( 12.40, 165.59) 04/24/2013 14:29:54 ( 10.05, 165.05)
19 04/24/2013 16:07:49 ( 22.66, 142.69) 04/24/2013 16:11:24 ( 10.04, 139.68)
20 04/25/2013 03:16:53 ( 10.01, 150.20) 04/25/2013 03:20:29 ( 22.69, 147.18)
21 04/25/2013 15:48:47 ( 22.67, 147.45) 04/25/2013 15:52:22 ( 10.05, 144.44)
22 04/26/2013 02:57:53 ( 10.06, 154.95) 04/26/2013 03:01:28 ( 22.68, 151.94)
23
